Tracking 19293 objects as of 21-Nov-2018
HD Live streaming from Space Station
objects crossing your sky now

OSCAR 29

Track OSCAR 29 now!
10-day predictions
OSCAR 29 is classified as:


NORAD ID: 18362
Int'l Code: 1987-080B
Perigee: 1,020.6 km
Apogee: 1,182.1 km
Inclination: 90.3 °
Period: 107.1 minutes
Semi major axis: 7472 km
RCS: 1.4883 m2 (large)
Launch date: September 16, 1987
Source: United States (US)
Launch site: AIR FORCE WESTERN TEST RANGE (AFWTR)
aabbcc
Your satellite tracking list
Your tracking list is empty




NASA's NSSDC Master Catalog

Two Line Element Set (TLE):
1 18362U 87080B   18324.19500226  .00000043  00000-0  55749-4 0  9997
2 18362  90.3204 352.7486 0108039  67.6040 334.4046 13.44059269528821
Source of the keplerian elements: AFSPC